Overview Statistics Trail Chart Weather Telemetry Raw packets
 

This is the latest recevied weather packets stored in our database for station/object KD7AWQ. If no packets are shown the sender has not sent any weather packets the latest 10 day(s).

<< 10 11 12 13 14 15 16 >>
Time Temp. Humidity Pressure Rain* Wind** Luminosity Snow
1788379230 31.11° C 32% 1188.8 hPa 0 mm - 1132 W/m² -
1788378926 30.56° C 33% 1188.9 hPa 0 mm - 1159 W/m² -
1788378625 31.11° C 34% 1188.8 hPa 0 mm - 331 W/m² -
1788378324 31.11° C 34% 1188.9 hPa 0 mm - 841 W/m² -
1788378020 31.11° C 34% 1188.9 hPa 0 mm - 1243 W/m² -
1788377716 31.67° C 34% 1189.1 hPa 0 mm - 370 W/m² -
1788377434 31.11° C 34% 1188.9 hPa 0 mm - 545 W/m² -
1788377114 31.11° C 33% 1189.1 hPa 0 mm - 531 W/m² -
1788376813 31.67° C 30% 1188.9 hPa 0 mm - 381 W/m² -
1788376508 31.67° C 30% 1189.1 hPa 0 mm - 1288 W/m² -
1788376203 31.11° C 29% 1189.2 hPa 0 mm - 1277 W/m² -
1788375898 31.11° C 33% 1189.5 hPa 0 mm - 1211 W/m² -
1788375593 30.56° C 34% 1189.3 hPa 0 mm - 1240 W/m² -
1788375290 31.11° C 35% 1189.3 hPa 0 mm - 374 W/m² -
1788374984 31.11° C 34% 1189.3 hPa 0 mm - 926 W/m² -
1788374680 30.56° C 34% 1189.3 hPa 0 mm - 1118 W/m² -
1788374375 30.56° C 36% 1189.7 hPa 0 mm - 1134 W/m² -
1788374071 29.44° C 37% 1189.5 hPa 0 mm - 278 W/m² -
1788373767 30° C 37% 1189.8 hPa 0 mm - 260 W/m² -
1788373463 30.56° C 36% 1189.7 hPa 0 mm - 230 W/m² -
1788373160 30.56° C 36% 1189.9 hPa 0 mm - 243 W/m² -
1788372855 30.56° C 36% 1190 hPa 0 mm - 1152 W/m² -
1788372555 31.11° C 35% 1189.7 hPa 0 mm - 359 W/m² -
1788372250 30.56° C 36% 1190.1 hPa 0 mm - 1076 W/m² -
1788371946 32.22° C 34% 1189.8 hPa 0 mm - 1033 W/m² -

* Rain latest hour (hover to see other rain measurements)
** Current wind speed in m/s (hover to see current wind gust speed)